#timestamp,LO_Frequency,Hit,StdDev 
1628553615.2,286046999.0,N
1628553635.0,286046998.4,N
1628553635.9,286046998.4,N
1628553655.8,286047000.8,N
1628553675.6,286046999.5,N
1628553695.4,286046998.8,N
1628553715.3,286046998.2,N
1628553735.1,286047001.2,N
1628553755.9,286047000.4,N
1628553775.7,286047000.4,N
1628553795.5,286047000.3,N
1628553815.4,286047000.4,N
1628553835.2,286047000.6,N
1628553855.0,286046998.2,N
1628553855.9,286046998.2,N
1628553875.8,286047001.0,N
1628553895.6,286046998.6,N
1628553915.5,286046999.6,N
1628553935.3,286046997.2,N
1628553955.1,286046997.4,N
1628553975.9,286046999.5,N
1628553995.7,286046998.6,N
1628554015.5,286046998.7,N
1628554035.4,286046998.6,N
1628554055.2,286046999.2,N
1628554075.1,286046998.8,N
1628554076.0,286046998.8,N
1628554095.8,286046998.7,N
1628554115.6,286046998.5,N
1628554135.5,286047000.3,N
1628554155.3,286047000.8,N
1628554175.1,286046998.1,N
1628554195.9,286046998.3,N
1628554215.7,286046999.6,N
1628554235.6,286046999.0,N
1628554255.4,286046998.4,N
1628554275.2,286047000.4,N
1628554295.1,286046999.4,N
1628554296.0,286046999.4,N
1628554315.8,286046999.2,N
1628554335.7,286046996.7,Y
1628554355.5,286046997.5,P
1628554375.3,286046997.0,P
1628554395.2,286046999.5,N
1628554415.0,286046998.8,N
1628554415.9,286046998.8,N
1628554435.8,286047000.7,N
1628554455.6,286046998.1,N
1628554475.4,286046998.6,N
1628554495.3,286046998.1,N
1628554515.1,286047000.7,N
1628554535.8,286046999.1,N
1628554555.7,286047000.6,N
1628554575.5,286047000.9,N
1628554595.4,286047000.0,N
1628554615.2,286047000.6,N
1628554635.0,286047000.5,N
1628554635.9,286047000.5,N
1628554655.8,286047000.5,N
1628554675.6,286047000.9,N
1628554695.4,286046999.7,N
1628554715.3,286047000.5,N
1628554735.1,286047000.9,N
1628554755.8,286046998.3,N
1628554775.7,286047001.2,N
1628554795.5,286046998.4,N
1628554815.4,286046999.1,N
1628554835.2,286046998.3,N
1628554855.0,286046998.5,N
1628554855.9,286046998.5,N
1628554875.8,286047000.8,N
1628554895.6,286047000.7,N
1628554915.4,286046998.2,N
1628554935.3,286046998.9,N
1628554955.1,286047000.6,N
1628554975.9,286046998.3,N
1628554995.7,286046997.2,N
1628555015.5,286046996.5,Y
1628555035.4,286046998.4,P
1628555055.2,286047000.3,N
1628555075.0,286047000.7,N
1628555075.9,286047000.7,N
1628555095.8,286047000.5,N
1628555115.6,286047001.0,N
1628555135.5,286046999.8,N
1628555155.3,286046999.7,N
1628555175.1,286047002.1,N
1628555195.9,286046998.5,N
1628555215.7,286046997.0,N
1628555235.5,286046997.3,N
1628555255.4,286046996.9,N
1628555275.2,286046996.8,N
1628555295.1,286046995.0,Y
1628555296.0,286046995.0,P
1628555315.8,286046995.8,N
1628555335.6,286046998.0,N
1628555355.5,286046997.7,N
1628555375.3,286046997.1,N
1628555395.1,286046996.6,N
1628555415.9,286046999.0,N
1628555435.7,286046999.5,N
1628555455.6,286046999.0,N
1628555475.4,286047001.2,N
1628555495.2,286046998.2,N
1628555515.1,286046998.2,N
1628555516.0,286046998.2,N
1628555535.8,286047000.7,N
1628555555.6,286046998.6,N
1628555575.5,286046998.7,N
1628555595.3,286046998.7,N
1628555615.1,286047001.2,N
1628555635.9,286047001.2,N
1628555655.7,286047000.7,N
1628555675.6,286047001.1,N
1628555695.4,286046998.1,N
1628555715.2,286047002.6,N
1628555735.1,286047002.6,N
1628555736.0,286047002.6,N
1628555755.8,286046999.8,N
1628555775.7,286047002.5,N
1628555795.5,286047004.3,N
1628555815.3,286047001.6,N
1628555835.2,286047004.4,N
1628555855.9,286047003.8,N
1628555875.7,286047004.3,N
1628555895.6,286047003.7,N
1628555915.4,286047003.7,N
1628555935.3,286047002.4,N
1628555955.1,286047001.9,N
1628555956.0,286047001.9,N
1628555975.8,286047002.6,N
1628555995.7,286046999.9,N
1628556015.5,286046999.7,N
1628556035.3,286047001.3,N
1628556055.2,286047000.1,N
1628556075.0,286047002.4,N
1628556075.9,286047002.4,N
1628556095.8,286047001.6,N
1628556115.6,286047001.9,N
1628556135.4,286047002.0,N
1628556155.3,286047001.8,N
1628556175.1,286047001.5,N
1628556195.8,286047001.9,N
1628556215.7,286047001.7,N
1628556235.5,286047002.2,N
1628556255.4,286047001.8,N
1628556275.2,286047004.3,Y
1628556295.0,286047002.7,P
1628556295.9,286047002.7,P
1628556315.8,286047001.2,P
1628556335.6,286046996.7,Y
1628556355.5,286046995.3,P
1628556375.3,286046996.4,N
1628556395.1,286046993.9,N
1628556415.9,286046996.1,N
1628556435.7,286046998.0,N
1628556455.5,286046997.4,N
1628556475.4,286046997.3,N
1628556495.2,286046994.9,N
1628556515.1,286046997.8,N
1628556516.0,286046997.8,N
1628556535.8,286046997.5,N
1628556555.6,286046996.6,N
1628556575.5,286046997.0,N
1628556595.3,286046999.3,N
1628556615.1,286046998.8,N
1628556635.9,286047001.2,N
1628556655.7,286046999.1,N
1628556675.6,286046998.9,N
1628556695.4,286046998.3,N
1628556715.2,286046998.7,N
1628556735.1,286046999.1,N
1628556736.0,286046999.1,N
1628556755.8,286046998.4,N
1628556775.6,286046998.4,N
1628556795.5,286046998.6,N
1628556815.3,286046998.3,N
1628556835.2,286046996.5,N
1628556855.9,286046999.0,N
1628556875.7,286046997.2,N
1628556895.6,286046999.3,N
1628556915.4,286046999.3,N
1628556935.2,286046998.4,N
1628556955.1,286046999.0,N
1628556956.0,286046999.0,N
1628556975.8,286046997.4,N
1628556995.7,286046999.6,N
1628557015.5,286046998.7,N
1628557035.3,286047000.7,N
1628557055.2,286046998.4,N
1628557075.0,286046998.6,N
1628557075.9,286046998.6,N
1628557095.7,286046998.8,N
1628557115.6,286046998.8,N
1628557135.4,286046998.7,N
1628557155.3,286046999.3,N
1628557175.1,286046998.7,N
1628557176.0,286046998.7,N
1628557195.8,286046998.9,N
